Voltar ao catálogo

STARLINK-32390

AtivoComunicaçõesVLEO
NORAD 61630·PAYLOAD·🇺🇸 United States

Lançado Oct 23, 2024 de Cape Canaveral Space Force Station

Loading…

Próximas Passagens (próximas 24 horas)

TLE

AtualizadoSource: CelesTrak SupGP

Época: Sep 15, 2026, 03:29 UTC

1 61630C 24191K   26258.14562500  .00031733  00000+0  11495-2 0  2585
2 61630  43.0003 164.7738 0001301 275.9469 267.1961 15.27560293    14

Acompanhe STARLINK-32390 em tempo real com AllMySat

Download on the App Store